[[{"header":{"parameterUnit":"m.s-1","parameterCategory":1,"la1":30.2991,"la2":30.254,"lo1":-89.0895,"lo2":-89.0444,"dy":0.0017,"dx":0.0017,"nx":28,"ny":28,"refTime":"2025-07-25T03:00:00:Z","depth":0,"parameterNumber":2,"parameterNumberName":"U-component_of_WINDS"},"data":[0,0,0,0,0,0,0,0,0,0,0,0,0,0,0,0,0,0,0,0,0,0,0,0,0,0,0,0,0,0,0,0,0,0,0,0,0,0,0,0,0,0,0,0,0,0,0,0,0,0,0,0,0,0,0,0,0,0,-3.9177,-3.9177,0,-3.91,-3.9099,-3.9098,-3.9034,-3.9033,-3.9033,-3.9032,-3.8947,-3.8946,-3.8944,0,0,0,0,0,0,0,0,0,0,0,0,0,-3.9268,-3.9266,-3.9178,-3.9177,-3.9176,-3.91,-3.9099,-3.9097,-3.9034,-3.9033,-3.9032,-3.9032,-3.8948,-3.8946,-3.8944,0,0,0,0,0,0,0,0,0,0,0,0,0,-3.9213,-3.9266,-3.9178,-3.9135,-3.913,-3.91,-3.9099,-3.9097,-3.9034,-3.9033,-3.9032,-3.9031,-3.8948,-3.8946,-3.8944,-3.8948,0,0,-3.8936,-3.8935,0,0,0,0,0,0,0,0,-3.9216,-3.921,-3.9142,-3.9138,-3.9133,-3.9076,-3.9099,-3.9047,-3.9034,-3.907,-3.9032,-3.9031,-3.899,-3.8984,-3.8972,-3.8944,-3.894,-3.8936,-3.8934,-3.8933,-3.8933,0,0,0,0,0,0,0,-3.922,-3.9213,-3.9146,-3.9141,-3.9135,-3.9118,-3.9109,-3.9089,-3.9037,-3.9067,-3.9062,-3.9054,-3.8988,-3.8974,-3.8969,-3.8939,-3.8936,-3.8934,-3.8932,-3.8931,-3.8911,-3.8912,0,0,0,0,0,0,-3.9231,-3.9216,-3.9149,-3.9144,-3.9173,-3.9118,-3.9108,-3.9095,-3.9037,-3.9027,-3.9055,-3.9052,-3.8979,-3.8972,-3.8966,-3.8966,-3.8933,-3.8931,-3.893,-3.891,-3.8911,-3.8912,0,0,0,0,0,0,-3.9233,-3.9226,-3.9152,-3.9179,-3.9168,-3.9117,-3.9103,-3.9094,-3.908,-3.9028,-3.9018,-3.9052,-3.8978,-3.897,-3.8953,-3.8963,-3.893,-3.8928,-3.8909,-3.891,-3.8911,-3.8968,0,0,0,0,0,0,-3.9236,-3.9227,-3.9229,-3.918,-3.9167,-3.9142,-3.9104,-3.9093,-3.9077,-3.9071,-3.9022,-3.9012,-3.8977,-3.8957,-3.8951,-3.8959,-3.8926,-3.8907,-3.8909,-3.8911,-3.8965,-3.8971,-3.8977,0,0,0,0,0,-3.924,-3.9247,-3.9229,-3.9221,-3.9169,-3.9142,-3.9135,-3.9095,-3.9078,-3.9079,-3.9045,-3.9014,-3.8964,-3.8956,-3.8948,-3.8956,-3.8907,-3.8909,-3.8911,-3.8962,-3.897,-3.8976,0,0,0,0,0,0,-3.9296,-3.9239,-3.9219,-3.9211,-3.9182,-3.9132,-3.9131,-3.9104,-3.9079,-3.9074,-3.9025,-3.9014,-3.9003,-3.8978,-3.8971,-3.8957,-3.8931,-3.8932,-3.8973,-3.898,-3.8985,-3.899,-3.8924,0,0,0,0,0,-3.9308,-3.9293,-3.9244,-3.9241,-3.9228,-3.9183,-3.917,-3.9142,-3.9109,-3.9096,-3.9061,-3.903,-3.9007,-3.8992,-3.8968,-3.8962,-3.895,-3.8964,-3.8969,-3.8974,-3.8974,-3.8969,-3.8974,-3.8919,-3.8919,-3.8919,0,0,-3.9332,-3.9299,-3.9292,-3.9252,-3.9226,-3.921,-3.9173,-3.9157,-3.9144,-3.9093,-3.9075,-3.9049,-3.9011,-3.9,-3.8993,-3.8979,-3.8988,-3.8977,-3.8981,-3.8979,-3.8971,-3.8977,-3.8981,-3.892,-3.892,-3.892,0,0,-3.9366,-3.9341,-3.9335,-3.9311,-3.9274,-3.9244,-3.9243,-3.9197,-3.9178,-3.916,-3.9122,-3.9105,-3.9067,-3.9041,-3.9023,-3.905,-3.902,-3.9044,-3.9072,-3.9067,-3.9072,-3.9075,-3.9083,-3.9087,-3.9045,-3.9045,-3.9045,0,-3.9399,-3.9375,-3.9336,-3.9323,-3.9306,-3.9262,-3.9255,-3.9233,-3.919,-3.9178,-3.9164,-3.9115,-3.9086,-3.9068,-3.9075,-3.9062,-3.9058,-3.9048,-3.9075,-3.9078,-3.9081,-3.9088,-3.9091,-3.9048,-3.9047,-3.9047,-3.9047,0,-3.9418,-3.9402,-3.9402,-3.9362,-3.9346,-3.9336,-3.9294,-3.9282,-3.9257,-3.9228,-3.921,-3.9174,-3.9142,-3.9136,-3.911,-3.9115,-3.9107,-3.9084,-3.9057,-3.9089,-3.9095,-3.9098,-3.9052,-3.9051,-3.905,-3.9049,0,0,-3.9482,-3.9423,-3.9424,-3.9405,-3.9362,-3.9348,-3.9337,-3.9307,-3.9297,-3.9269,-3.9257,-3.9227,-3.9206,-3.9186,-3.9157,-3.9153,-3.9175,-3.913,-3.9129,-3.9138,-3.9176,-3.9192,-3.9196,-3.9156,-3.9157,-3.9157,-3.9179,0,-3.9508,-3.9487,-3.9452,-3.9441,-3.9425,-3.9383,-3.9373,-3.9345,-3.9319,-3.93,-3.9271,-3.9249,-3.9225,-3.9212,-3.9206,-3.9174,-3.9181,-3.9172,-3.9142,-3.9142,-3.9151,-3.9199,-3.9215,-3.9237,-3.9181,-3.9181,-3.9181,0,-3.9535,-3.9511,-3.9499,-3.9457,-3.9449,-3.9441,-3.9411,-3.9395,-3.9362,-3.9343,-3.9322,-3.9291,-3.9275,-3.9253,-3.923,-3.9225,-3.9211,-3.9193,-3.9193,-3.9187,-3.9162,-3.9191,-3.9243,-3.9246,-3.9185,-3.9185,-3.9184,0,-3.9581,-3.9546,-3.9534,-3.952,-3.9472,-3.9467,-3.9446,-3.9413,-3.9397,-3.9371,-3.936,-3.9333,-3.9317,-3.9295,-3.9257,-3.9245,-3.9239,-3.9213,-3.922,-3.9221,-3.9218,-3.9219,-3.9267,-3.9214,-3.9214,-3.9214,-3.9214,0,-3.9613,-3.9606,-3.9555,-3.9547,-3.9539,-3.9499,-3.9492,-3.9467,-3.9438,-3.9424,-3.9387,-3.9374,-3.9326,-3.9308,-3.9278,-3.9263,-3.9257,-3.9239,-3.9231,-3.9241,-3.9243,-3.923,-3.9226,-3.9215,-3.9215,-3.9215,-3.9214,0,-3.9662,-3.9627,-3.9612,-3.9568,-3.9557,-3.9553,-3.9514,-3.9505,-3.9478,-3.9461,-3.9454,-3.941,-3.9387,-3.9348,-3.9313,-3.9293,-3.9283,-3.927,-3.9294,-3.9289,-3.9298,-3.9297,-3.9336,-3.9339,-3.9287,-3.9288,-3.9288,0,-3.9683,-3.9677,-3.9634,-3.9623,-3.9604,-3.9586,-3.9571,-3.9532,-3.9517,-3.948,-3.9475,-3.945,-3.9426,-3.9391,-3.9354,-3.9327,-3.9312,-3.9328,-3.9308,-3.9318,-3.931,-3.931,-3.9309,-3.9332,-3.9333,-3.9334,-3.9334,0,-3.9723,-3.9707,-3.9687,-3.9662,-3.9645,-3.9623,-3.9598,-3.9591,-3.9546,-3.9531,-3.9508,-3.949,-3.9456,-3.943,-3.9398,-3.9375,-3.9346,-3.9342,-3.9341,-3.935,-3.9364,-3.9355,-3.9304,-3.934,-3.9339,-3.9339,-3.9339,-3.9338,-3.9757,-3.975,-3.9719,-3.9698,-3.9677,-3.9655,-3.9644,-3.9616,-3.9597,-3.9566,-3.9544,-3.9522,-3.9489,-3.9444,-3.9423,-3.9404,-3.9391,-3.9392,-3.9391,-3.9391,-3.9395,-3.937,-3.9398,-3.9398,-3.9398,-3.9398,-3.9398,0,-3.9794,-3.9773,-3.9754,-3.9722,-3.9706,-3.9684,-3.9656,-3.9643,-3.9624,-3.9597,-3.9576,-3.9549,-3.9524,-3.9488,-3.946,-3.9452,-3.9438,-3.9445,-3.9444,-3.9439,-3.9409,-3.9411,-3.9457,-3.9457,-3.9457,-3.9457,-3.9457,-3.9457,-3.9811,-3.9798,-3.9779,-3.9754,-3.9732,-3.9711,-3.9697,-3.9677,-3.9655,-3.9627,-3.9607,-3.9584,-3.9553,-3.9523,-3.9499,-3.9488,-3.9479,-3.949,-3.9476,-3.9447,-3.9441,-3.9436,-3.9438,-3.9489,-3.9489,-3.9507,-3.9508,-3.9508]},{"header":{"parameterUnit":"m.s-1","parameterCategory":1,"la1":30.2991,"la2":30.254,"lo1":-89.0895,"lo2":-89.0444,"dy":0.0017,"dx":0.0017,"nx":28,"ny":28,"refTime":"2025-07-25T03:00:00:Z","depth":0,"parameterNumber":3,"parameterNumberName":"V-component_of_WINDS"},"data":[0,0,0,0,0,0,0,0,0,0,0,0,0,0,0,0,0,0,0,0,0,0,0,0,0,0,0,0,0,0,0,0,0,0,0,0,0,0,0,0,0,0,0,0,0,0,0,0,0,0,0,0,0,0,0,0,0,0,6.3422,6.3422,0,6.3453,6.3453,6.3454,6.3405,6.3403,6.3402,6.34,6.343,6.3432,6.3434,0,0,0,0,0,0,0,0,0,0,0,0,0,6.332,6.3322,6.3422,6.3422,6.3423,6.3453,6.3453,6.3454,6.3405,6.3403,6.3401,6.3399,6.3429,6.3432,6.3434,0,0,0,0,0,0,0,0,0,0,0,0,0,6.3359,6.3322,6.3422,6.3402,6.3401,6.3453,6.3453,6.3454,6.3406,6.3403,6.3401,6.3398,6.3428,6.3431,6.3435,6.3507,0,0,6.3446,6.3447,0,0,0,0,0,0,0,0,6.3356,6.3362,6.3405,6.3404,6.3402,6.3423,6.3428,6.3471,6.3406,6.3404,6.34,6.3397,6.3429,6.3432,6.3444,6.3508,6.3509,6.3446,6.3448,6.345,6.3451,0,0,0,0,0,0,0,6.3354,6.3361,6.3434,6.3405,6.3404,6.3391,6.3394,6.3436,6.343,6.3404,6.34,6.3405,6.3428,6.344,6.3444,6.351,6.3446,6.3449,6.3451,6.3452,6.3635,6.3638,0,0,0,0,0,0,6.3354,6.3359,6.3433,6.3435,6.3373,6.3395,6.3398,6.3419,6.343,6.3429,6.3407,6.3403,6.3436,6.344,6.3445,6.353,6.3449,6.3453,6.3455,6.3632,6.3636,6.3639,0,0,0,0,0,0,6.3352,6.3361,6.3432,6.3396,6.3404,6.34,6.3423,6.342,6.3433,6.3432,6.343,6.3421,6.3434,6.344,6.3492,6.353,6.3454,6.3458,6.3629,6.3633,6.3637,6.37,0,0,0,0,0,0,6.3349,6.336,6.3388,6.3397,6.3406,6.3479,6.3425,6.3423,6.3439,6.3434,6.3445,6.3444,6.3432,6.3487,6.3495,6.3533,6.346,6.3626,6.3631,6.3636,6.3694,6.3705,6.3715,0,0,0,0,0,6.3345,6.3404,6.3389,6.3399,6.3441,6.3481,6.3486,6.3472,6.3443,6.347,6.347,6.3444,6.3525,6.3493,6.3502,6.3541,6.3623,6.363,6.3636,6.3689,6.3703,6.3715,0,0,0,0,0,0,6.3397,6.3404,6.3389,6.3452,6.3466,6.3473,6.3507,6.3487,6.351,6.3504,6.3485,6.3488,6.3544,6.3548,6.3512,6.3612,6.3569,6.3577,6.3607,6.362,6.363,6.3627,6.3463,0,0,0,0,0,6.3417,6.345,6.3454,6.3509,6.3517,6.3511,6.3528,6.3516,6.353,6.3536,6.3539,6.3554,6.3582,6.3602,6.3628,6.3695,6.3697,6.3727,6.3738,6.3746,6.3753,6.3789,6.3802,6.3659,6.3659,6.3659,0,0,6.3456,6.3464,6.3485,6.3519,6.3529,6.3563,6.3516,6.3554,6.3579,6.3542,6.3591,6.3594,6.3609,6.3669,6.3696,6.3674,6.3793,6.3754,6.3761,6.3763,6.3797,6.381,6.3822,6.3663,6.3662,6.3662,0,0,6.3544,6.3554,6.3601,6.3612,6.3629,6.3625,6.3636,6.3646,6.3647,6.3697,6.3669,6.3699,6.3749,6.376,6.3773,6.3868,6.3845,6.3877,6.3931,6.3967,6.3978,6.3988,6.4021,6.4034,6.3885,6.3885,6.3885,0,6.359,6.3641,6.3627,6.3668,6.3683,6.3653,6.37,6.3711,6.3735,6.3747,6.3723,6.3785,6.3793,6.3855,6.3879,6.389,6.3902,6.3875,6.3978,6.3987,6.3996,6.4028,6.4041,6.3889,6.3888,6.3888,6.3887,0,6.3697,6.3733,6.3769,6.3794,6.3814,6.3858,6.385,6.3872,6.3859,6.3858,6.3909,6.3917,6.3945,6.3959,6.3947,6.402,6.4007,6.3981,6.3937,6.4014,6.4043,6.4056,6.3894,6.3893,6.3891,6.3891,0,0,6.3817,6.3835,6.3849,6.386,6.3877,6.3904,6.3946,6.3974,6.3993,6.4012,6.4046,6.409,6.4067,6.4081,6.407,6.4101,6.4176,6.4071,6.4071,6.4089,6.4257,6.4276,6.429,6.4161,6.4164,6.4165,6.4256,0,6.3905,6.3979,6.3968,6.4039,6.4072,6.4044,6.4081,6.4095,6.4096,6.4123,6.4123,6.4155,6.4121,6.413,6.416,6.416,6.4209,6.4154,6.4193,6.4194,6.4189,6.4306,6.4325,6.441,6.4267,6.4269,6.427,0,6.4016,6.404,6.4114,6.4127,6.414,6.4174,6.4199,6.4226,6.4242,6.424,6.4257,6.4241,6.4283,6.424,6.4298,6.4261,6.4276,6.4279,6.4282,6.4284,6.4236,6.431,6.4437,6.4449,6.4289,6.4287,6.4286,0,6.4096,6.4146,6.4197,6.4208,6.4224,6.4248,6.4256,6.4269,6.4287,6.4309,6.4321,6.4347,6.4362,6.4383,6.4374,6.4344,6.4434,6.439,6.4433,6.4433,6.4451,6.445,6.4582,6.4464,6.4464,6.4463,6.4463,0,6.4194,6.4241,6.4233,6.4264,6.4316,6.4304,6.4355,6.4359,6.4372,6.4403,6.4381,6.4411,6.4398,6.4427,6.4421,6.4469,6.4476,6.4475,6.4473,6.4477,6.4477,6.4486,6.4479,6.4467,6.4466,6.4465,6.4465,0,6.4291,6.4288,6.4342,6.4353,6.4357,6.4394,6.4404,6.4433,6.4432,6.4473,6.4481,6.448,6.4513,6.4507,6.4544,6.4539,6.46,6.4591,6.4595,6.4593,6.4635,6.4631,6.4776,6.4794,6.4666,6.4667,6.4668,0,6.4353,6.4388,6.4404,6.4424,6.4434,6.4466,6.4485,6.4475,6.4495,6.4516,6.4543,6.4575,6.4599,6.4654,6.4656,6.4684,6.4674,6.4723,6.4678,6.4681,6.4674,6.4672,6.4675,6.4732,6.4733,6.4734,6.4735,0,6.4464,6.4461,6.4489,6.4518,6.4541,6.4562,6.4581,6.4599,6.459,6.4614,6.4648,6.4668,6.4706,6.4737,6.4764,6.4771,6.4752,6.475,6.4761,6.4765,6.4766,6.4765,6.4619,6.4746,6.4745,6.4744,6.4744,6.4743,6.4545,6.4575,6.4591,6.4624,6.4637,6.4656,6.4684,6.4688,6.4717,6.4747,6.474,6.4779,6.4794,6.4828,6.4838,6.4868,6.485,6.4866,6.487,6.4874,6.4879,6.4762,6.4873,6.4873,6.4873,6.4872,6.4872,0,6.4654,6.4664,6.4694,6.4722,6.4747,6.4729,6.4749,6.4771,6.4806,6.4823,6.4848,6.4888,6.4919,6.4924,6.4953,6.4976,6.4968,6.4984,6.4982,6.4984,6.4894,6.4881,6.499,6.499,6.499,6.499,6.499,6.499,6.4714,6.4764,6.4764,6.4821,6.483,6.4868,6.4882,6.4899,6.4912,6.4958,6.4984,6.4987,6.4999,6.503,6.5057,6.5058,6.5069,6.5089,6.5086,6.5002,6.499,6.4979,6.4966,6.5092,6.5092,6.5173,6.5174,6.5174]}]]